Regional Weather Roundup
Issued by NWS Sioux Falls, SD

Home | Current Version | Previous Version | Text Only | Print | Product List | Glossary Off
Versions: 1 2 3 4 5 6 7 8 9 10 11 12 13 14 15 16 17 18 19 20 21 22 23 24 25 26 27 28 29 30 31 32 33 34 35 36 37 38 39 40 41 42 43 44 45 46 47 48 49 50

000
ASUS43 KFSD 220210
RWRFSD

WEATHER ROUNDUP FOR SE SOUTH DAKOTA/SW MINNESOTA/NW IOWA
NATIONAL WEATHER SERVICE SIOUX FALLS SD
900 PM CDT THU AUG 21 2014

NOTE: "FAIR" INDICATES FEW OR NO CLOUDS BELOW 12,000 FEET WITH NO
SIGNIFICANT WEATHER AND OR OBSTRUCTIONS TO VISIBILITY.


SDZ038>040-050-052>070-220300-
SOUTHEAST SOUTH DAKOTA

CITY           SKY/WX    TMP DP  RH WIND       PRES   REMARKS
CHAMBERLAIN    PTCLDY    77  62  61 N3        29.88S
HURON          PTCLDY    73  66  78 N7        29.87R
MADISON        FAIR      72  72 100 N6        29.89S
MITCHELL       PTCLDY    74  67  78 N6        29.86R
SIOUX FALLS    PTCLDY    76  69  79 N6        29.87R
WINNER         FAIR      78  58  49 N7        29.91R
YANKTON        CLEAR     79  72  78 N6        29.85R
$$

MNZ071-072-080-081-089-090-097-098-220300-
SOUTHWEST MINNESOTA

CITY           SKY/WX    TMP DP  RH WIND       PRES   REMARKS
FAIRMONT       CLOUDY    75  64  69 MISG      29.85R
JACKSON        RAIN      72  66  83 SW8       29.87F
LUVERNE        CLEAR     77  70  78 N3        29.88R
MARSHALL       PTCLDY    75  68  78 N3        29.86R
MONTEVIDEO     PTCLDY    75  70  83 CALM      29.86R
PIPESTONE      CLEAR     75  70  83 N3        29.89R
REDWOOD FALLS  CLEAR     78  73  84 CALM      29.84R
TRACY          PTCLDY    76  71  83 NW7       29.88R
WINDOM         PTCLDY    73  68  83 SW3       29.87R
WORTHINGTON    MOCLDY    79  19  11 NE7       29.89R
$$

IAZ001>003-012>014-020>022-031-032-NEZ013-014-SDZ071-220300-
NORTHWEST IOWA

CITY           SKY/WX    TMP DP  RH WIND       PRES   REMARKS
CHEROKEE       CLEAR     81  78  91 CALM      29.85R
DENISON        CLEAR     77  75  94 SE5       29.84R
ESTHERVILLE    MOCLDY    74  69  85 SW6       29.85S
LE MARS        CLEAR     79  77  94 CALM      29.85R
ORANGE CITY    MOCLDY    84  73  70 N6        29.87R
SHELDON        CLOUDY    79  75  89 N3        29.86R
SIOUX CITY     CLEAR     80  77  90 CALM      29.84R
SPENCER        MOCLDY    79  75  87 S5        29.86R
STORM LAKE     CLEAR     77  77 100 S5        29.87R
$$

ABBREVIATIONS USED IN REMARKS
   TC - TEMPERATURE IN CELSIUS
  WCI - WIND CHILL INDEX
   HX - HEAT INDEX
  VSB - VISIBILITY




USA.gov is the U.S. government's official web portal to all federal, state and local government web resources and services.